sat.trackr.live / text

‹ back to catalog

STARLINK-2734

NORAD 48657 · 2021-044V

PAYLOAD ACTIVE UNKNOWN

§ Identity

Operator
Country
US
Launch date
2021-05-26
Launch site
AFETR
Launch vehicle
Mass (kg)
RCS (m²)

Purposes: comms

External: N2YO · Heavens-Above · Gunter

§ Orbital elements

Epoch: 2026-09-19T16:56:53.323872Z

Period
94.01 min
Inclination
53.1604°
Eccentricity
0.0001295
Mean motion
15.31695594 rev/d
Perigee alt
469.9 km
Apogee alt
471.6 km
Semi-major
6,848.9 km
B*
-1.5252e-5
RAAN
291.0421°
Arg perigee
75.5691°
Mean anomaly
284.5454°
Rev number
29,355

§ Raw data

STARLINK-27341 48657U 21044V   26262.70617273 -.00000838  00000+0 -15252-4 0  99912 48657  53.1604 291.0421 0001295  75.5691 284.5454 15.31695594293554

JSON: /api/v1/satellites/48657 · /tle

For live sub-satellite position, see the globe view (requires WebGL).

§ Visibility from observer

Set your observer location to see the next 7 days of passes ≥ 10°. The values pass through the URL so the page stays shareable.

No JS? Fill the form by hand. The geolocation button needs JavaScript.